This demonstration page uses our WeatherBlox Daily Observations layout. Learn more.

Left ArrowRight Arrow

Hourly Observations for October 2, 2016

Temp ( °F °C ) Dew Point ( °F °C ) Humidity (%) Winds ( mph kmh ) Pressure ( in mb ) Visibility ( mi km ) Precip ( " mm )
12:11 am 00:11 Clear 52 11 52 11 100 100 N N/A 30.06 1018 3 4.82802 N/A
12:36 am 00:36 Partly Cloudy 52 11 52 11 100 100 N N/A 30.06 1018 4 6.43736 N/A
12:56 am 00:56 Partly Cloudy 52 11 50 10 94 94 N N/A 30.06 1018 3 4.82802 N/A
1:15 am 01:15 Partly Cloudy 52 11 50 10 94 94 N N/A 30.06 1018 3 4.82802 N/A
1:36 am 01:36 Cloudy 52 11 52 11 100 100 N N/A 30.03 1017 3 4.82802 N/A
1:56 am 01:56 Mostly Cloudy 52 11 52 11 100 100 N N/A 30.06 1018 2.5 4.02335 N/A
2:15 am 02:15 Mostly Cloudy 52 11 52 11 100 100 N N/A 30.06 1018 2.5 4.02335 N/A
2:36 am 02:36 Cloudy 54 12 54 12 100 100 N N/A 30.03 1017 3 4.82802 N/A
2:56 am 02:56 Cloudy 54 12 54 12 100 100 N N/A 30.03 1017 3 4.82802 N/A
3:15 am 03:15 Cloudy 54 12 52 11 94 94 N N/A 30.03 1017 3 4.82802 N/A
3:36 am 03:36 Cloudy 54 12 54 12 100 100 N N/A 30.03 1017 3 4.82802 N/A
3:56 am 03:56 Cloudy 54 12 54 12 100 100 N N/A 30.03 1017 4 6.43736 N/A
4:16 am 04:16 Mostly Cloudy 54 12 54 12 100 100 N N/A 30.03 1017 4 6.43736 N/A
4:36 am 04:36 Cloudy 54 12 52 11 94 94 N N/A 30.03 1017 1.5 2.41401 N/A
4:55 am 04:55 Cloudy 54 12 54 12 100 100 N N/A 30.03 1017 2 3.21868 N/A
5:16 am 05:16 Cloudy 54 12 54 12 100 100 N N/A 30.03 1017 2 3.21868 N/A
5:36 am 05:36 Cloudy 54 12 54 12 100 100 N N/A 30.03 1017 2 3.21868 N/A
5:55 am 05:55 Cloudy 54 12 54 12 100 100 N N/A 30.03 1017 2 3.21868 N/A
6:16 am 06:16 Cloudy 55 13 54 12 94 94 N N/A 30.03 1017 2 3.21868 N/A
6:36 am 06:36 Cloudy 54 12 54 12 100 100 N N/A 30.03 1017 2 3.21868 N/A
6:56 am 06:56 Cloudy 54 12 54 12 100 100 N N/A 30.03 1017 2 3.21868 N/A
7:16 am 07:16 Cloudy 54 12 54 12 100 100 N N/A 30.03 1017 2 3.21868 N/A
7:36 am 07:36 Cloudy 54 12 54 12 100 100 N N/A 30.03 1017 2 3.21868 N/A
7:56 am 07:56 Cloudy 55 13 55 13 100 100 N N/A 30.03 1017 2 3.21868 N/A
8:16 am 08:16 Cloudy 55 13 55 13 100 100 N N/A 30.06 1018 1.25 2.011675 N/A
8:36 am 08:36 Cloudy 55 13 55 13 100 100 N N/A 30.06 1018 0.5 0.80467 N/A
8:56 am 08:56 Cloudy 57 14 57 14 100 100 SW 3 6 30.06 1018 0.5 0.80467 N/A
9:16 am 09:16 Cloudy 57 14 57 14 100 100 N N/A 30.06 1018 1.25 2.011675 N/A
9:35 am 09:35 Cloudy 57 14 57 14 100 100 N N/A 30.06 1018 1.75 2.816345 N/A
9:56 am 09:56 Cloudy 57 14 57 14 100 100 N N/A 30.06 1018 2.5 4.02335 N/A
10:16 am 10:16 Cloudy 59 15 57 14 94 94 WSW 3 6 30.06 1018 3 4.82802 N/A
10:35 am 10:35 Cloudy 59 15 57 14 94 94 W 5 7 30.09 1019 4 6.43736 N/A
10:56 am 10:56 Cloudy 59 15 57 14 94 94 NW 5 7 30.09 1019 5 8.0467 N/A
11:16 am 11:16 Cloudy 61 16 57 14 88 88 N N/A 30.09 1019 5 8.0467 N/A
11:36 am 11:36 Cloudy 61 16 57 14 88 88 W 6 9 30.09 1019 7 11.26538 N/A
11:56 am 11:56 Cloudy 61 16 57 14 88 88 WNW 3 6 30.09 1019 5 8.0467 N/A
12:16 pm 12:16 Cloudy 61 16 57 14 88 88 WNW 5 7 30.09 1019 7 11.26538 N/A
12:36 pm 12:36 Cloudy 61 16 57 14 88 88 NW 5 7 30.09 1019 10 16.0934 N/A
12:56 pm 12:56 Cloudy 63 17 57 14 83 83 W 3 6 30.09 1019 10 16.0934 N/A
1:16 pm 13:16 Cloudy 61 16 57 14 88 88 WNW 9 15 30.09 1019 10 16.0934 N/A
1:36 pm 13:36 Cloudy 63 17 57 14 83 83 WNW 10 17 30.09 1019 10 16.0934 N/A
1:56 pm 13:56 Cloudy 64 18 57 14 78 78 NW 7 11 30.09 1019 10 16.0934 N/A
2:15 pm 14:15 Cloudy 64 18 57 14 78 78 WNW 8 13 30.09 1019 10 16.0934 N/A
2:36 pm 14:36 Cloudy 63 17 57 14 83 83 NW 7 11 30.09 1019 10 16.0934 N/A
2:56 pm 14:56 Cloudy 63 17 57 14 83 83 WNW 6 9 30.09 1019 10 16.0934 N/A
3:15 pm 15:15 Cloudy 63 17 57 14 83 83 NW 5 7 30.06 1018 10 16.0934 N/A
3:36 pm 15:36 Cloudy 64 18 57 14 78 78 WNW 5 7 30.06 1018 10 16.0934 N/A
3:56 pm 15:56 Cloudy 64 18 57 14 78 78 W 5 7 30.06 1018 10 16.0934 N/A
4:15 pm 16:15 Cloudy 64 18 57 14 78 78 WNW 6 9 30.06 1018 10 16.0934 N/A
4:36 pm 16:36 Cloudy 64 18 57 14 78 78 W 3 6 30.06 1018 10 16.0934 N/A
4:56 pm 16:56 Partly Cloudy 66 19 57 14 73 73 WNW 3 6 30.06 1018 10 16.0934 N/A
5:16 pm 17:16 Partly Cloudy 66 19 57 14 73 73 WNW 6 9 30.06 1018 10 16.0934 N/A
5:36 pm 17:36 Partly Cloudy 64 18 57 14 78 78 NW 5 7 30.06 1018 10 16.0934 N/A
5:56 pm 17:56 Sunny 64 18 57 14 78 78 NW 3 6 30.06 1018 10 16.0934 N/A
6:16 pm 18:16 Sunny 66 19 55 13 68 68 WNW 3 6 30.06 1018 10 16.0934 N/A
6:36 pm 18:36 Sunny 66 19 55 13 68 68 WNW 5 7 30.06 1018 10 16.0934 N/A
6:56 pm 18:56 Sunny 64 18 55 13 73 73 N N/A 30.06 1018 10 16.0934 N/A
7:16 pm 19:16 Sunny 63 17 55 13 77 77 N N/A 30.06 1018 10 16.0934 N/A
7:36 pm 19:36 Clear 59 15 55 13 88 88 N N/A 30.06 1018 10 16.0934 N/A
7:55 pm 19:55 Clear 57 14 55 13 94 94 N N/A 30.09 1019 10 16.0934 N/A
8:16 pm 20:16 Clear 57 14 54 12 88 88 N N/A 30.09 1019 10 16.0934 N/A
8:36 pm 20:36 Clear 57 14 54 12 88 88 N N/A 30.09 1019 10 16.0934 N/A
8:55 pm 20:55 Clear 55 13 54 12 94 94 N N/A 30.09 1019 10 16.0934 N/A
9:16 pm 21:16 Clear 54 12 54 12 100 100 N N/A 30.12 1020 10 16.0934 N/A
9:36 pm 21:36 Clear 54 12 54 12 100 100 N N/A 30.12 1020 10 16.0934 N/A
9:56 pm 21:56 Clear 54 12 52 11 94 94 N N/A 30.12 1020 10 16.0934 N/A
10:16 pm 22:16 Clear 52 11 52 11 100 100 S 3 6 30.12 1020 7 11.26538 N/A
10:36 pm 22:36 Clear 54 12 54 12 100 100 N N/A 30.12 1020 10 16.0934 N/A
10:56 pm 22:56 Clear 54 12 52 11 94 94 N N/A 30.12 1020 10 16.0934 N/A
11:16 pm 23:16 Clear 52 11 52 11 100 100 N N/A 30.12 1020 10 16.0934 N/A
11:36 pm 23:36 Clear 52 11 52 11 100 100 N N/A 30.12 1020 4 6.43736 N/A
11:56 pm 23:56 Clear 52 11 52 11 100 100 N N/A 30.12 1020 5 8.0467 N/A

Powered by AerisWeather